Content
SEND FEEDBACK

Daily
Averages
Monthly
Summary
United States of America

SAN FRANCISCO, CALIFORNIA


Home > North America > United States > California
Elevation: 128 feet     Latitude: 37 46N     Longitude: 122 26W

WEATHER
 
SELECT A DAY
Number of Records: 187,659;   Date Range: 1/1/95 - 10/23/14
 
SHARE

PRINT THIS DATA

[ ← Previous Day ]
WEATHER ALMANAC - NOVEMBER 12, 2013
[ Next Day → ]
[ °C ]   °F
Weather ElementAverageHighLow
Temperature61.6 °F70 °F (3:56 pm)57 °F (5:56 am)
Dewpoint49.6 °F53.1 °F (10:56 am)46 °F (1:56 am)
Humidity65.4 %83 % (11:56 pm)46 % (3:56 pm)
Barometer30.24 in30.27 in (9:56 am)30.19 in (1:56 am)
Wind Speed6.9 mph15 mph (7:56 pm)
Weather ElementAverage
Visibility10 mi
Wind DirectionSSW (204.8 °)

Weather ElementTotal
Precipitation---
Heating Degree Days1.5 (Base 65)
Growing Degree Days13.5 (Base 50)
Averaged from 23 records on November 12, 2013
WEATHER CONDITIONS BREAKOUT
WIND DIRECTION BREAKOUT
WEATHER BY HOUR - NOVEMBER 12, 2013
[ °C ]   °F
Local TimeTemperatureDewpointHumidityBarometerVisibilityWind DirectionWind SpeedGust SpeedPrecipitationEventsConditions
1:56 AM59.0 °F46.0 °F62 %30.19 in10.0 miNW (310°)5.8 mphMostly Cloudy
2:56 AM59.0 °F46.0 °F62 %30.19 in10.0 miWNW (300°)3.5 mphMostly Cloudy
3:56 AM57.9 °F46.0 °F65 %30.21 in10.0 miNW (310°)3.5 mphMostly Cloudy
4:56 AM57.9 °F46.0 °F65 %30.24 in10.0 miWest (260°)5.8 mphMostly Cloudy
5:56 AM57.0 °F46.0 °F67 %30.23 in10.0 miCalmMostly Cloudy
6:56 AM57.9 °F50.0 °F75 %30.22 in10.0 miSE (140°)8.1 mph0.00 inOvercast
7:56 AM59.0 °F48.9 °F69 %30.25 in10.0 miCalmMostly Cloudy
8:56 AM61.0 °F50.0 °F67 %30.26 in10.0 miCalmMostly Cloudy
9:56 AM63.0 °F51.1 °F65 %30.27 in10.0 miNorth (10°)6.9 mphMostly Cloudy
10:56 AM64.0 °F53.1 °F67 %30.27 in10.0 miNNE (30°)6.9 mphMostly Cloudy
11:56 AM63.0 °F53.1 °F70 %30.25 in10.0 miNE (40°)5.8 mphMostly Cloudy
12:56 PM64.0 °F52.0 °F65 %30.23 in10.0 miNNE (20°)4.6 mphMostly Cloudy
1:56 PM68.0 °F48.0 °F49 %30.22 in10.0 miNorth (360°)3.5 mphMostly Cloudy
2:56 PM68.0 °F48.9 °F50 %30.21 in10.0 miNorth (360°)6.9 mphScattered Clouds
3:56 PM70.0 °F48.0 °F46 %30.21 in10.0 miWNW (300°)8.1 mphPartly Cloudy
4:56 PM64.9 °F48.9 °F56 %30.22 in10.0 miWest (280°)13.8 mphPartly Cloudy
5:56 PM63.0 °F48.9 °F60 %30.22 in10.0 miWest (280°)11.5 mphClear
6:56 PM62.1 °F50.0 °F65 %30.24 in10.0 miWNW (290°)10.4 mphClear
7:56 PM61.0 °F52.0 °F72 %30.25 in10.0 miWest (270°)15.0 mphClear
8:56 PM60.1 °F51.1 °F72 %30.25 in10.0 miWest (280°)9.2 mphClear
9:56 PM60.1 °F52.0 °F75 %30.26 in10.0 miWNW (290°)11.5 mphClear
10:56 PM59.0 °F52.0 °F78 %30.26 in10.0 miWNW (290°)11.5 mphPartly Cloudy
11:56 PM57.0 °F52.0 °F83 %30.26 in10.0 miWNW (290°)6.9 mphPartly Cloudy
Hourly data recorded from KSFO, located miles away from San Francisco, California







STORIES FROM OUR PARTNERS